This is the latest recevied weather packets stored in our database for station/object N0NPO. If no packets are shown the sender has not sent any weather packets the latest 10 day(s).
| Time | Temp. | Humidity | Pressure | Rain* | Wind** | Luminosity | Snow |
|---|---|---|---|---|---|---|---|
| 1778288698 | 20° C | 1% | 1011.5 hPa | 0 mm | - | 35 W/m² | - |
| 1778288394 | 20° C | 1% | 1011.4 hPa | 0 mm | - | 54 W/m² | - |
| 1778288093 | 20.56° C | 1% | 1011.4 hPa | 0 mm | - | 62 W/m² | - |
| 1778287792 | 20.56° C | 1% | 1011.4 hPa | 0 mm | - | 71 W/m² | - |
| 1778287489 | 20.56° C | 1% | 1011.6 hPa | 0 mm | - | 83 W/m² | - |
| 1778287187 | 20.56° C | 1% | 1011.4 hPa | 0 mm | - | 92 W/m² | - |
| 1778286885 | 21.11° C | 1% | 1011.4 hPa | 0 mm | - | 105 W/m² | - |
| 1778286581 | 21.11° C | 1% | 1011.6 hPa | 0 mm | - | 119 W/m² | - |
| 1778286279 | 20.56° C | 1% | 1011.3 hPa | 0 mm | - | 125 W/m² | - |
| 1778285976 | 20.56° C | 1% | 1011.6 hPa | 0 mm | - | 132 W/m² | - |
| 1778285673 | 21.11° C | 1% | 1011.5 hPa | 0 mm | - | 159 W/m² | - |
| 1778285369 | 20.56° C | 1% | 1011.6 hPa | 0 mm | - | 165 W/m² | - |
| 1778285067 | 21.11° C | 1% | 1011.6 hPa | 0 mm | - | 128 W/m² | - |
| 1778284763 | 21.11° C | 1% | 1011.8 hPa | 0 mm | - | 199 W/m² | - |
| 1778284461 | 21.11° C | 1% | 1011.8 hPa | 0 mm | - | 186 W/m² | - |
| 1778284157 | 21.11° C | 1% | 1011.7 hPa | 0 mm | - | 181 W/m² | - |
| 1778283854 | 21.11° C | 1% | 1011.6 hPa | 0 mm | - | 204 W/m² | - |
| 1778283552 | 21.11° C | 1% | 1011.5 hPa | 0 mm | - | 229 W/m² | - |
| 1778283251 | 20.56° C | 1% | 1011.7 hPa | 0 mm | - | 235 W/m² | - |
| 1778282948 | 21.11° C | 1% | 1011.8 hPa | 0 mm | - | 264 W/m² | - |
| 1778282645 | 21.11° C | 1% | 1011.6 hPa | 0 mm | - | 239 W/m² | - |
| 1778282342 | 21.67° C | 1% | 1011.6 hPa | 0 mm | - | 265 W/m² | - |
| 1778282039 | 21.11° C | 1% | 1011.7 hPa | 0 mm | - | 303 W/m² | - |
| 1778281736 | 21.11° C | 1% | 1011.9 hPa | 0 mm | - | 340 W/m² | - |
| 1778281432 | 20.56° C | 1% | 1011.6 hPa | 0 mm | - | 340 W/m² | - |
* Rain latest hour (hover to see other rain measurements)
** Current wind speed in m/s (hover to see current wind gust speed)